Ludington, MI

5:42 PM EDT on April 19, 2018 (GMT -0400)
Mason County

Weather History for KLDM - January, 2012

Change the Weather History Date:

Monday, January 30, 2012

  Actual Average Record
Temperature  
Mean Temperature 23 °F -  
Max Temperature 33 °F 31 °F 49 °F (1988)
Min Temperature 13 °F 19 °F -4 °F (2003)
Degree Days  
Heating Degree Days 42    
Moisture  
Dew Point 16 °F    
Average Humidity 73    
Maximum Humidity 84    
Minimum Humidity 62    
Precipitation  
Precipitation 0.00 in - - ()
Sea Level Pressure  
Sea Level Pressure 30.01 in    
Wind  
Wind Speed 6 mph (SE)    
Max Wind Speed 17 mph    
Max Gust Speed 23 mph    
Visibility 9 miles    
Events Snow    
Averages and records for this station are not official NWS values.
T = Trace of Precipitation, MM = Missing Value Source: NWS Daily Summary

Daily Weather History Graph

Daily Weather History Graph

Search for Another Location

Airport or City:

Astronomy

Jan. 30, 2012 Rise Set
Actual Time 8:05 AM EST 5:52 PM EST
Civil Twilight 7:34 AM EST 6:23 PM EST
Nautical Twilight 7:00 AM EST 6:58 PM EST
Astronomical Twilight 6:26 AM EST 7:32 PM EST
Moon 11:10 AM EST (1/30) 12:53 AM EST (1/30)
Length of Visible Light 10h 48m
Length of Day
9h 47m
Waxing Crescent, 46% of the Moon is Illuminated
Jan 30
Waxing Crescent
Jan 30
First Quarter
Feb 7
Full
Feb 14
Last Quarter
Feb 21
New

Hourly Weather History & Observations

Time (EST) Temp. Windchill Dew Point Humidity Pressure Visibility Wind Dir Wind Speed Gust Speed Precip Events Conditions
12:14 AM 23.9 °F 18.0 °F 12.4 °F 62% 30.16 in 10.0 mi West 4.6 mph - N/A   Mostly Cloudy
12:35 AM 23.2 °F 17.2 °F 12.0 °F 62% 30.16 in 10.0 mi West 4.6 mph - N/A   Scattered Clouds
12:55 AM 22.6 °F 15.3 °F 11.8 °F 63% 30.17 in 10.0 mi West 5.8 mph - N/A   Scattered Clouds
1:14 AM 22.1 °F 14.7 °F 11.3 °F 63% 30.17 in 10.0 mi West 5.8 mph - N/A   Scattered Clouds
1:35 AM 21.6 °F 13.0 °F 10.6 °F 63% 30.16 in 10.0 mi West 6.9 mph - N/A   Scattered Clouds
1:55 AM 21.9 °F 17.2 °F 10.6 °F 62% 30.16 in 10.0 mi WNW 3.5 mph - N/A   Clear
2:14 AM 21.4 °F 15.1 °F 10.4 °F 63% 30.15 in 10.0 mi WNW 4.6 mph - N/A   Clear
2:35 AM 21.2 °F - 10.4 °F 63% 30.15 in 10.0 mi Calm Calm - N/A   Clear
2:54 AM 21.2 °F - 10.9 °F 65% 30.16 in 10.0 mi Calm Calm - N/A   Clear
3:15 AM 21.6 °F - 10.8 °F 63% 30.16 in 10.0 mi Calm Calm - N/A   Clear
3:35 AM 21.2 °F 16.4 °F 10.8 °F 64% 30.16 in 10.0 mi West 3.5 mph - N/A   Clear
3:55 AM 16.3 °F - 9.9 °F 76% 30.15 in 10.0 mi Calm Calm - N/A   Clear
4:15 AM 14.0 °F 8.2 °F 9.1 °F 81% 30.15 in 10.0 mi ESE 3.5 mph - N/A   Clear
4:35 AM 13.8 °F 8.0 °F 9.5 °F 83% 30.14 in 10.0 mi East 3.5 mph - N/A   Clear
4:54 AM 13.8 °F 8.0 °F 9.7 °F 84% 30.13 in 10.0 mi ESE 3.5 mph - N/A   Clear
5:15 AM 16.3 °F 9.2 °F 11.8 °F 82% 30.12 in 10.0 mi East 4.6 mph - N/A   Scattered Clouds
5:35 AM 16.3 °F 10.8 °F 11.3 °F 81% 30.12 in 10.0 mi SSE 3.5 mph - N/A   Clear
5:54 AM 17.1 °F - 11.7 °F 79% 30.12 in 10.0 mi Calm Calm - N/A   Clear
6:15 AM 18.3 °F 10.2 °F 13.3 °F 81% 30.10 in 10.0 mi ESE 5.8 mph - N/A   Scattered Clouds
6:35 AM 18.9 °F 12.1 °F 13.1 °F 78% 30.10 in 10.0 mi SE 4.6 mph - N/A   Clear
6:54 AM 18.9 °F 12.1 °F 13.1 °F 78% 30.09 in 10.0 mi SE 4.6 mph - N/A   Clear
7:15 AM 18.9 °F 9.8 °F 12.7 °F 77% 30.08 in 10.0 mi SE 6.9 mph - N/A   Clear
7:35 AM 19.2 °F 10.2 °F 12.9 °F 76% 30.07 in 10.0 mi SE 6.9 mph - N/A   Clear
7:54 AM 19.6 °F 14.5 °F 13.3 °F 77% 30.07 in 10.0 mi SE 3.5 mph - N/A   Mostly Cloudy
8:15 AM 19.4 °F 11.5 °F 13.1 °F 76% 30.07 in 10.0 mi SE 5.8 mph - N/A   Overcast
8:35 AM 20.1 °F 12.3 °F 14.0 °F 77% 30.07 in 10.0 mi ESE 5.8 mph - N/A   Overcast
8:54 AM 20.3 °F 10.6 °F 14.0 °F 77% 30.06 in 7.0 mi SE 8.1 mph - N/A Snow Light Snow
9:15 AM 20.8 °F 11.2 °F 15.1 °F 78% 30.06 in 2.5 mi SE 8.1 mph - N/A Snow Light Snow
9:35 AM 21.2 °F 12.6 °F 16.5 °F 82% 30.05 in 4.0 mi SE 6.9 mph - N/A Snow Light Snow
9:54 AM 22.1 °F 12.8 °F 17.6 °F 83% 30.03 in 2.5 mi SE 8.1 mph - N/A Snow Light Snow
10:15 AM 22.6 °F 12.6 °F 18.1 °F 83% 30.02 in 7.0 mi ESE 9.2 mph - N/A Snow Light Snow
10:34 AM 23.9 °F 13.5 °F 18.5 °F 80% 30.02 in 5.0 mi SE 10.4 mph - N/A Snow Light Snow
11:04 AM 23.9 °F 12.9 °F 18.7 °F 80% 30.00 in 10.0 mi SE 11.5 mph - N/A   Scattered Clouds
11:32 AM 25.2 °F 13.3 °F 18.1 °F 75% 29.98 in 10.0 mi SE 13.8 mph 18.4 mph N/A   Scattered Clouds
11:54 AM 26.2 °F 15.2 °F 18.3 °F 72% 29.96 in 10.0 mi SE 12.7 mph 23.0 mph N/A   Clear
11:58 AM 26.4 °F 13.6 °F 18.5 °F 72% 29.95 in 10.0 mi SE 17.3 mph 23.0 mph N/A   Clear
12:25 PM 26.6 °F 14.7 °F 17.6 °F 69% 29.91 in 10.0 mi SE 15.0 mph 20.7 mph N/A   Clear
12:45 PM 28.4 °F 18.0 °F 19.4 °F 69% 29.90 in 10.0 mi SE 12.7 mph 18.4 mph N/A   Scattered Clouds
1:05 PM 28.4 °F 22.2 °F 19.4 °F 69% 29.92 in 10.0 mi ESE 5.8 mph - N/A   Unknown
1:25 PM 28.4 °F 19.7 °F 19.4 °F 69% 29.90 in 10.0 mi SSE 9.2 mph - N/A   Scattered Clouds
1:45 PM 28.4 °F 19.7 °F 19.4 °F 69% 29.87 in 10.0 mi SE 9.2 mph 16.1 mph N/A   Scattered Clouds
2:01 PM - - - N/A% 29.86 in 10.0 mi SSE 13.8 mph - N/A   Clear
2:34 PM 30.2 °F 21.3 °F 20.8 °F 68% 29.84 in 10.0 mi SE 10.4 mph 17.3 mph N/A   Scattered Clouds
3:25 PM 32.0 °F 23.6 °F 21.2 °F 64% 29.82 in 10.0 mi SE 10.4 mph - N/A   Clear
3:45 PM 32.0 °F 23.6 °F 23.0 °F 69% 29.82 in 10.0 mi SE 10.4 mph 18.4 mph N/A   Clear
3:57 PM 31.5 °F 24.2 °F 22.5 °F 69% 29.81 in 10.0 mi SSE 8.1 mph 16.1 mph N/A   Scattered Clouds
4:25 PM 33.8 °F 27.7 °F 24.8 °F 70% 29.81 in 10.0 mi SE 6.9 mph - N/A   Clear
4:45 PM 33.8 °F 25.8 °F 24.8 °F 70% 29.81 in 10.0 mi SE 10.4 mph - N/A   Clear
5:45 PM 33.8 °F 26.4 °F 24.8 °F 70% 29.81 in 10.0 mi SE 9.2 mph - N/A   Clear
6:05 PM 32.0 °F 26.4 °F 23.0 °F 69% 29.82 in 10.0 mi SE 5.8 mph - N/A   Clear
6:25 PM 32.0 °F 25.6 °F 23.0 °F 69% 29.81 in 10.0 mi SSE 6.9 mph - N/A   Clear
6:45 PM 32.0 °F 25.6 °F 24.8 °F 75% 29.82 in 10.0 mi SSE 6.9 mph - N/A   Clear
7:05 PM 32.0 °F 27.5 °F 24.8 °F 75% 29.82 in 10.0 mi SSE 4.6 mph - N/A   Clear
7:25 PM 30.2 °F 25.4 °F 23.0 °F 75% 29.82 in 10.0 mi SSE 4.6 mph - N/A   Clear
7:45 PM 32.0 °F 25.6 °F 24.8 °F 75% 29.82 in 10.0 mi SSE 6.9 mph - N/A   Clear
8:05 PM 32.0 °F 27.5 °F 24.8 °F 75% 29.82 in 10.0 mi SE 4.6 mph - N/A   Clear
8:25 PM 30.2 °F 26.7 °F 23.0 °F 75% 29.83 in 10.0 mi SE 3.5 mph - N/A   Clear
8:45 PM 28.4 °F 23.3 °F 23.0 °F 80% 29.82 in 10.0 mi SE 4.6 mph - N/A   Clear
9:05 PM 28.4 °F - 23.0 °F 80% 29.82 in 10.0 mi Calm Calm - N/A   Clear
9:25 PM 28.4 °F 24.6 °F 24.8 °F 86% 29.82 in 10.0 mi SE 3.5 mph - N/A   Clear
9:45 PM 28.4 °F - 24.8 °F 86% 29.82 in 10.0 mi Calm Calm - N/A   Clear
10:05 PM 28.4 °F - 24.8 °F 86% 29.82 in 10.0 mi Calm Calm - N/A   Clear
10:25 PM 28.4 °F - 24.8 °F 86% 29.82 in 10.0 mi Calm Calm - N/A   Clear
10:45 PM 28.4 °F 24.6 °F 24.8 °F 86% 29.81 in 10.0 mi East 3.5 mph - N/A   Clear
11:05 PM 26.6 °F - 23.0 °F 86% 29.81 in 10.0 mi Calm Calm - N/A   Clear
11:45 PM 28.4 °F 24.6 °F 24.8 °F 86% 29.80 in 7.0 mi ESE 3.5 mph - N/A   Clear